Wind_Speed
5 4 4 5 6 6 6 6 6 6 6 6 6 6 6 7 8 8 9 9 9 9 9 10 10 10 10 10 10 10 10 11 12 11 12 12 12 12 13 13 14 13 13
6 5 6 6 6 6 7 7 6 7 7 7 7 7 8 8 8 8 9 9 10 10 11 11 11 11 11 11 12 12 12 12 12 12 12 12 13 13 14 14 15 15 15
6 6 6 6 6 7 8 8 8 7 8 8 8 9 9 9 9 9 9 10 10 11 12 12 12 12 12 12 13 13 12 13 13 14 14 14 14 15 15 15 16 16 16
7 6 6 7 7 7 8 9 8 8 9 9 10 10 10 10 10 10 11 12 12 13 13 12 12 12 13 14 14 14 14 15 15 15 15 15 15 16 15 15 16 16 16
8 7 7 7 7 8 8 9 8 9 10 10 11 11 11 11 12 12 13 13 13 13 13 13 13 14 14 15 15 15 15 15 15 16 17 17 17 17 17 17 17 17 16
9 9 8 8 8 8 9 9 9 10 10 11 11 11 12 13 13 13 13 13 13 13 13 14 14 15 16 16 16 16 16 16 17 17 18 19 19 19 18 18 18 18 17
9 9 9 9 9 10 10 10 11 11 11 11 11 12 13 14 14 14 14 13 14 14 14 15 16 16 16 17 17 17 17 17 18 19 19 19 19 20 20 19 19 18 18
10 11 11 11 10 11 11 12 12 12 12 12 13 14 15 15 15 15 15 15 16 15 15 16 17 17 17 18 18 18 18 18 19 19 20 20 20 20 20 20 20 19 20
11 12 12 12 12 12 12 13 13 13 14 14 14 15 16 16 16 16 17 17 17 17 18 18 18 18 18 19 19 19 20 20 20 20 21 21 20 20 21 20 20 21 21
13 14 13 13 13 14 14 14 14 14 15 15 16 17 17 17 17 17 18 18 19 19 19 19 20 20 20 20 20 21 21 22 22 22 21 21 21 21 21 21 22 23 23
14 14 14 14 15 15 16 15 15 15 16 17 17 18 18 17 18 18 19 20 20 20 20 20 21 21 21 21 21 21 22 22 23 23 22 22 22 22 22 23 24 24 24
15 15 15 16 16 17 18 18 18 17 18 18 19 19 19 19 19 20 21 21 21 21 22 22 22 22 22 23 22 23 22 23 23 23 23 23 23 24 24 25 25 25 25
15 16 17 18 18 19 19 20 20 19 20 21 21 21 21 20 20 21 21 21 22 22 22 22 22 23 23 23 23 23 23 23 23 23 23 24 25 26 26 26 26 26 26
17 18 19 20 20 21 21 21 22 21 21 22 22 22 21 21 21 22 22 22 22 22 22 23 23 24 24 24 24 24 23 23 23 23 24 24 25 26 27 27 27 27 27
21 20 20 21 21 22 22 22 22 23 23 23 23 23 22 22 22 22 23 22 23 23 22 23 24 24 24 24 24 24 24 24 24 24 24 25 25 26 26 26 26 27 27
22 21 22 22 22 23 23 23 24 24 24 23 24 24 23 23 22 23 23 23 23 23 23 24 24 25 24 25 25 24 25 25 25 25 25 25 26 26 26 27 27 27 27
24 23 23 23 23 23 23 24 25 25 25 25 24 24 24 24 24 24 25 25 25 24 26 26 26 26 26 26 25 25 25 26 26 26 26 26 26 27 27 28 27 28 28
25 25 24 24 25 25 25 25 26 26 26 25 26 25 25 25 25 25 26 26 26 27 27 26 26 26 26 26 26 26 26 27 28 28 28 28 28 28 28 29 29 29 29
26 26 26 26 25 25 26 26 26 26 26 26 26 26 26 26 26 27 27 27 28 28 27 26 27 27 27 26 27 27 27 27 28 28 28 29 29 29 29 29 29 29 29
26 26 26 27 27 27 27 27 27 26 27 27 27 27 27 28 28 29 29 29 29 29 28 28 27 26 26 26 27 27 27 27 27 28 28 28 28 29 29 29 29 28 29
26 26 27 27 28 28 28 27 28 28 28 28 28 28 28 29 29 30 30 30 30 30 30 29 28 28 28 28 28 27 27 27 28 28 28 28 29 29 29 29 28 28 29
27 27 28 28 28 28 28 28 28 29 29 29 29 29 29 30 30 31 31 30 30 30 30 30 29 29 29 29 28 29 29 29 29 29 29 29 30 30 30 29 29 29 29
27 28 28 28 29 29 29 30 30 30 30 30 30 30 30 31 32 32 31 31 31 31 31 31 30 30 30 30 30 29 29 30 30 30 30 30 30 30 30 30 30 30 29
28 28 28 28 28 29 30 30 30 30 30 30 30 31 31 31 32 33 31 31 32 32 31 31 31 31 32 31 31 31 30 30 30 30 30 31 31 31 31 30 30 30 30
28 28 28 28 29 29 30 31 30 30 30 30 31 31 31 31 32 32 31 32 32 31 31 32 32 33 33 32 32 32 31 31 31 31 31 31 31 31 30 30 30 30 30
29 29 30 30 30 30 30 31 30 30 31 31 31 31 32 32 32 32 32 31 31 31 32 33 33 34 34 33 32 32 32 32 32 32 30 30 31 31 31 31 30 30 30
Wind_Direction
322 324 322 323 325 320 320 319 313 311 312 311 308 308 314 316 317 314 310 302 297 296 303 305 304 308 306 301 299 301 298 300 298 291 288 288 282 281 281 283 283 284 285
315 315 315 317 320 316 315 310 303 302 302 304 304 302 307 311 314 312 307 301 300 301 305 305 304 301 301 300 300 301 299 300 300 298 293 288 283 281 284 286 285 283 282
325 311 308 312 314 316 314 310 309 305 300 299 301 302 305 310 312 311 305 302 301 301 301 302 300 300 301 302 300 299 298 300 301 299 296 294 291 286 285 287 286 283 283
327 317 313 314 311 318 317 313 311 308 306 303 302 299 301 306 310 310 311 308 305 305 302 300 300 298 297 299 298 296 300 298 297 297 297 295 292 292 291 289 288 286 287
326 319 316 319 317 318 321 320 317 313 309 306 304 297 296 301 307 308 309 310 309 307 302 301 302 301 299 299 299 296 296 296 297 297 297 295 293 292 292 289 288 288 288
316 315 316 316 316 317 317 318 318 318 313 311 310 309 306 306 306 307 308 307 306 308 306 304 304 302 300 300 298 296 295 294 295 296 296 294 292 290 289 287 287 287 287
306 307 309 309 309 310 311 313 314 314 314 313 312 310 310 310 310 309 308 308 307 307 307 306 304 304 303 301 298 295 294 295 294 294 295 295 292 288 286 284 285 286 286
303 303 306 306 305 307 307 307 307 308 310 312 311 309 308 307 307 308 307 308 307 305 306 306 304 302 303 302 300 299 296 294 294 292 291 291 288 288 287 284 283 285 284
301 301 306 306 304 305 307 307 306 305 307 308 307 307 306 305 304 305 305 305 304 302 301 303 303 303 301 299 298 296 295 294 293 292 290 288 285 287 287 286 285 286 286
302 303 305 306 305 303 304 305 304 304 304 306 305 305 305 304 304 304 304 304 304 302 300 299 300 299 298 298 295 294 294 293 292 291 291 288 285 286 287 287 287 287 286
301 304 304 305 305 304 302 301 300 301 302 303 303 303 301 300 301 301 302 303 302 300 299 298 298 298 297 296 294 293 292 291 290 290 291 289 287 286 285 286 286 285 284
301 301 301 302 303 303 301 299 298 299 300 299 298 298 297 297 298 298 299 299 299 298 297 296 296 297 297 297 295 292 291 289 289 289 289 288 288 287 286 286 285 285 284
300 300 299 298 298 299 298 299 300 300 300 300 298 296 295 294 295 296 296 296 296 296 295 294 294 294 294 295 295 295 292 290 288 287 288 289 289 288 287 285 284 283 283
295 297 297 298 297 296 295 296 298 300 300 300 298 298 295 294 294 294 296 296 296 295 293 293 293 292 292 294 294 294 293 291 290 289 290 291 291 291 289 287 286 284 283
293 293 296 297 297 296 296 295 295 297 297 299 298 298 297 295 296 297 298 298 297 294 293 293 294 294 294 293 292 291 291 291 292 292 292 291 292 292 291 290 288 286 284
293 292 292 293 294 295 295 294 294 294 295 296 297 297 297 295 295 296 297 299 299 296 295 295 295 294 294 294 293 291 290 291 291 292 293 293 292 292 291 290 290 287 285
291 292 289 290 291 293 293 293 292 293 294 294 293 294 296 295 296 297 298 300 299 299 299 297 294 293 293 293 292 291 290 290 291 291 292 293 293 292 291 289 288 288 287
288 289 288 287 288 289 289 289 291 293 293 291 290 292 295 295 297 296 296 296 298 299 299 298 295 293 293 292 291 291 290 289 290 290 291 292 292 291 290 290 289 286 286
287 287 287 286 286 286 287 287 288 291 291 291 290 291 292 293 296 298 298 298 298 299 299 297 297 296 294 293 292 291 290 290 290 291 292 292 292 291 291 290 290 288 286
288 288 285 285 285 285 285 285 286 288 290 291 291 291 291 292 294 295 297 297 298 298 299 298 297 296 297 295 294 292 291 291 292 293 292 292 292 294 293 292 291 291 290
288 288 287 285 285 285 286 285 286 287 288 290 291 291 291 292 293 294 295 296 296 297 298 297 297 296 296 296 295 293 291 291 293 293 293 293 293 294 294 294 292 291 290
288 288 286 286 285 286 287 286 286 286 287 288 289 291 292 293 294 294 294 294 295 295 296 296 296 296 296 295 295 294 293 293 292 293 293 294 293 293 293 292 290 290 290
288 287 287 285 285 285 286 286 286 285 287 287 288 290 291 291 294 293 292 292 292 294 295 295 295 295 296 296 295 294 294 294 294 293 293 294 294 292 292 291 290 289 289
287 286 286 286 286 286 287 287 286 286 288 288 288 288 290 291 292 292 291 291 292 293 294 295 295 296 295 295 295 294 294 295 295 294 294 294 294 293 293 293 291 290 289
287 287 286 288 288 288 288 288 287 288 288 287 287 288 289 291 291 291 290 291 291 293 294 294 294 295 296 295 294 294 294 295 295 295 295 294 293 293 294 293 292 290 289
287 287 288 287 288 288 288 288 289 289 288 288 288 289 290 290 290 289 290 291 292 293 294 294 294 295 295 294 293 293 294 294 294 294 294 293 292 293 294 293 291 291 290
Height
5911 5910 5909 5908 5906 5905 5904 5903 5901 5900 5899 5898 5897 5895 5894 5893 5891 5890 5888 5887 5886 5885 5884 5883 5882 5881 5880 5878 5877 5876 5875 5874 5873 5872 5871 5870 5869 5868 5867 5866 5866 5865 5864
5910 5909 5908 5907 5906 5905 5903 5902 5900 5899 5898 5896 5895 5894 5893 5891 5890 5888 5887 5885 5884 5883 5882 5881 5880 5879 5877 5876 5875 5874 5872 5871 5870 5869 5868 5867 5866 5865 5864 5863 5862 5862 5861
5910 5908 5907 5906 5905 5903 5902 5900 5899 5897 5896 5895 5894 5892 5890 5889 5888 5886 5885 5884 5882 5881 5880 5878 5877 5876 5875 5873 5872 5871 5870 5868 5867 5866 5865 5863 5862 5861 5861 5860 5859 5858 5857
5908 5907 5906 5904 5903 5902 5900 5898 5897 5895 5894 5893 5892 5890 5889 5888 5886 5884 5883 5882 5880 5879 5877 5876 5874 5873 5871 5870 5869 5867 5866 5865 5863 5862 5861 5860 5859 5857 5857 5856 5855 5853 5853
5907 5906 5904 5903 5902 5900 5899 5897 5895 5894 5892 5891 5889 5888 5886 5885 5884 5882 5881 5879 5877 5875 5874 5873 5871 5870 5868 5867 5865 5864 5862 5861 5859 5858 5857 5855 5854 5853 5852 5852 5851 5850 5848
5905 5904 5903 5902 5900 5898 5897 5895 5893 5892 5890 5889 5887 5886 5884 5883 5881 5879 5878 5876 5874 5872 5871 5869 5868 5866 5865 5863 5862 5860 5858 5857 5855 5854 5852 5851 5850 5849 5848 5847 5846 5845 5844
5904 5902 5901 5900 5898 5896 5895 5893 5891 5890 5888 5886 5884 5883 5881 5880 5878 5876 5875 5873 5871 5870 5868 5866 5864 5863 5861 5860 5858 5856 5854 5852 5851 5849 5848 5846 5845 5843 5843 5842 5841 5840 5839
5902 5900 5899 5897 5896 5894 5892 5891 5889 5887 5886 5884 5882 5880 5879 5877 5875 5873 5871 5869 5868 5866 5864 5862 5861 5859 5857 5855 5853 5851 5849 5848 5846 5844 5843 5841 5840 5839 5837 5836 5836 5835 5834
5899 5898 5896 5894 5893 5891 5890 5888 5886 5885 5883 5881 5879 5877 5875 5873 5871 5869 5868 5866 5864 5862 5860 5858 5856 5854 5853 5851 5849 5847 5845 5843 5841 5839 5838 5836 5835 5834 5832 5831 5830 5829 5828
5897 5895 5893 5891 5890 5888 5886 5885 5883 5882 5880 5878 5876 5874 5872 5870 5868 5866 5863 5861 5859 5857 5855 5853 5851 5850 5848 5846 5844 5842 5839 5837 5835 5834 5832 5831 5829 5828 5827 5826 5824 5823 5822
5894 5892 5890 5888 5887 5885 5883 5881 5880 5878 5876 5874 5872 5870 5868 5865 5863 5861 5859 5857 5855 5852 5850 5848 5846 5844 5842 5840 5838 5836 5834 5832 5830 5828 5827 5825 5823 5822 5821 5820 5818 5817 5816
5890 5888 5887 5885 5883 5881 5879 5877 5875 5874 5872 5870 5868 5865 5863 5861 5859 5857 5854 5852 5850 5847 5845 5843 5841 5839 5836 5834 5832 5830 5828 5826 5824 5822 5821 5819 5817 5816 5814 5813 5811 5810 5809
5886 5884 5883 5881 5879 5877 5875 5873 5871 5869 5867 5865 5863 5860 5858 5856 5854 5851 5849 5847 5844 5842 5839 5837 5835 5833 5831 5828 5826 5824 5821 5820 5818 5816 5814 5812 5811 5809 5807 5806 5804 5803 5801
5882 5880 5878 5876 5874 5872 5870 5868 5866 5864 5862 5860 5857 5855 5853 5850 5848 5846 5843 5841 5838 5836 5833 5831 5829 5826 5824 5822 5820 5818 5816 5814 5812 5810 5808 5806 5804 5802 5800 5798 5796 5795 5793
5876 5875 5873 5871 5869 5867 5865 5863 5861 5859 5857 5854 5852 5850 5847 5845 5843 5840 5838 5835 5832 5830 5828 5825 5823 5820 5818 5816 5814 5812 5809 5807 5805 5803 5801 5799 5797 5795 5792 5790 5788 5787 5785
5871 5869 5868 5866 5864 5861 5859 5857 5855 5853 5851 5849 5847 5844 5842 5839 5837 5835 5832 5829 5827 5824 5822 5819 5816 5814 5812 5809 5807 5805 5803 5800 5798 5796 5794 5791 5789 5787 5785 5783 5781 5779 5777
5865 5863 5861 5859 5858 5856 5854 5851 5849 5847 5845 5843 5841 5838 5836 5834 5831 5829 5826 5823 5820 5818 5815 5813 5810 5808 5805 5803 5800 5798 5795 5793 5791 5789 5786 5784 5782 5779 5777 5775 5773 5771 5769
5858 5857 5855 5853 5851 5849 5847 5845 5843 5841 5839 5836 5834 5832 5830 5827 5825 5822 5820 5817 5814 5812 5809 5806 5803 5801 5798 5796 5793 5790 5788 5785 5783 5781 5778 5776 5774 5771 5769 5767 5765 5763 5761
5851 5850 5848 5846 5844 5842 5840 5838 5836 5834 5832 5830 5828 5826 5823 5821 5818 5816 5813 5810 5807 5805 5802 5799 5796 5794 5791 5788 5786 5783 5780 5778 5775 5773 5770 5768 5766 5763 5761 5758 5756 5754 5752
5844 5842 5840 5838 5837 5835 5833 5831 5829 5827 5825 5823 5821 5818 5816 5814 5811 5809 5806 5803 5800 5797 5794 5791 5789 5786 5784 5781 5778 5775 5772 5770 5768 5765 5763 5760 5758 5755 5753 5750 5748 5745 5743
5837 5835 5833 5831 5829 5827 5825 5824 5822 5820 5818 5816 5813 5811 5809 5807 5804 5801 5798 5795 5793 5790 5787 5784 5781 5779 5776 5773 5770 5767 5765 5762 5759 5757 5754 5752 5750 5747 5744 5742 5739 5737 5734
5829 5827 5825 5823 5821 5819 5818 5816 5814 5812 5810 5808 5806 5803 5801 5798 5796 5793 5790 5787 5785 5782 5779 5776 5773 5770 5768 5765 5762 5760 5757 5754 5751 5749 5746 5743 5741 5738 5736 5733 5731 5728 5726
5821 5819 5817 5815 5813 5811 5810 5808 5806 5804 5802 5799 5797 5795 5793 5790 5787 5784 5782 5779 5776 5774 5771 5768 5765 5762 5760 5757 5754 5751 5748 5746 5743 5740 5737 5735 5732 5729 5727 5724 5722 5719 5717
5813 5811 5809 5807 5805 5803 5801 5799 5797 5795 5793 5790 5788 5786 5784 5781 5778 5775 5773 5770 5768 5765 5762 5760 5757 5754 5751 5748 5745 5742 5740 5737 5734 5732 5729 5726 5723 5720 5718 5715 5713 5710 5708
5804 5802 5801 5799 5797 5794 5792 5790 5788 5786 5784 5782 5779 5777 5775 5772 5769 5766 5764 5761 5759 5756 5754 5751 5748 5745 5742 5739 5736 5733 5731 5728 5725 5722 5719 5717 5714 5712 5709 5707 5704 5702 5699
5796 5794 5792 5790 5788 5786 5783 5781 5779 5777 5775 5773 5770 5768 5766 5763 5760 5758 5755 5752 5750 5748 5745 5742 5739 5736 5733 5729 5727 5724 5722 5719 5716 5713 5710 5708 5705 5703 5700 5698 5696 5693 5690